Date,Pressure,Depth,Temperature,Conductivity,Salinity,Fluorescence,timeJ,Latitude,Longitude,Irradiance,Transmission,Density,Oxygen_ml/l,Oxygen_umol/kg
2015-01-20T08:01:00,2.000,-2.0,14.4318,4.550986,37.9286,0.2390,20,43.24,5.29,1.9619e+01,95.5626,28.3586,4.98363,216.319
2015-01-20T08:01:00,3.000,-3.0,14.4405,4.552444,37.9331,0.2177,20,43.24,5.29,1.5875e+01,95.6251,28.3602,5.00351,217.182
2015-01-20T08:01:00,4.000,-4.0,14.4417,4.552603,37.9329,0.2256,20,43.24,5.29,1.3381e+01,95.5885,28.3599,5.05836,219.562
2015-01-20T08:01:00,5.000,-5.0,14.4402,4.552487,37.9329,0.2536,20,43.24,5.29,1.1595e+01,95.6816,28.3602,5.04746,219.089
2015-01-20T08:01:00,6.000,-6.0,14.4374,4.552136,37.9321,0.2698,20,43.24,5.29,1.0091e+01,95.6776,28.3601,5.05213,219.292
2015-01-20T08:01:00,7.000,-6.9,14.4249,4.550288,37.9270,0.2332,20,43.24,5.29,8.8386e+00,95.6658,28.3587,5.08670,220.793
2015-01-20T08:01:00,8.000,-7.9,14.4221,4.549734,37.9240,0.2311,20,43.24,5.29,8.0783e+00,95.6237,28.3571,5.08541,220.738
2015-01-20T08:01:00,9.000,-8.9,14.4324,4.550970,37.9248,0.2457,20,43.24,5.29,7.1768e+00,95.6133,28.3557,5.05628,219.474
2015-01-20T08:01:00,10.000,-9.9,14.4717,4.556368,37.9351,0.2549,20,43.24,5.29,6.4453e+00,95.6175,28.3558,5.06747,219.957
2015-01-20T08:01:00,11.000,-10.9,14.4754,4.557395,37.9409,0.2399,20,43.24,5.29,5.8717e+00,95.6771,28.3594,5.12075,222.269
2015-01-20T08:01:00,12.000,-11.9,14.4739,4.556982,37.9382,0.2449,20,43.24,5.29,5.3493e+00,95.8331,28.3575,5.11131,221.859
2015-01-20T08:01:00,13.000,-12.9,14.4947,4.559911,37.9443,0.2260,20,43.24,5.29,4.8535e+00,95.7876,28.3581,5.10474,221.573
2015-01-20T08:01:00,14.000,-13.9,14.4989,4.560751,37.9477,0.2025,20,43.24,5.29,4.4196e+00,95.9040,28.3597,5.09924,221.333
2015-01-20T08:01:00,15.000,-14.9,14.4954,4.560266,37.9463,0.2379,20,43.24,5.29,4.0003e+00,95.8953,28.3593,5.10633,221.641
2015-01-20T08:01:00,16.000,-15.9,14.4904,4.559783,37.9466,0.2222,20,43.24,5.29,3.6320e+00,95.9261,28.3604,5.10429,221.553
2015-01-20T08:01:00,17.000,-16.9,14.4766,4.558337,37.9466,0.1987,20,43.24,5.29,3.3205e+00,95.9045,28.3632,5.11191,221.884
2015-01-20T08:01:00,18.000,-17.9,14.4777,4.559000,37.9512,0.1958,20,43.24,5.29,3.0024e+00,95.8392,28.3665,5.07818,220.419
2015-01-20T08:01:00,19.000,-18.8,14.4826,4.559767,37.9531,0.1973,20,43.24,5.29,2.7279e+00,95.7601,28.3670,5.10610,221.630
2015-01-20T08:01:00,20.000,-19.8,14.4796,4.559359,37.9518,0.2121,20,43.24,5.29,2.4921e+00,95.9699,28.3667,5.11450,221.995
2015-01-20T08:01:00,21.000,-20.8,14.4826,4.559848,37.9531,0.2290,20,43.24,5.29,2.2604e+00,95.9548,28.3670,5.10239,221.470
2015-01-20T08:01:00,22.000,-21.8,14.4778,4.559391,37.9530,0.2276,20,43.24,5.29,2.0397e+00,96.0115,28.3680,5.09813,221.285
2015-01-20T08:01:00,23.000,-22.8,14.4716,4.558422,37.9498,0.2131,20,43.24,5.29,1.8541e+00,95.9892,28.3668,5.10880,221.749
2015-01-20T08:01:00,24.000,-23.8,14.4821,4.559733,37.9510,0.2088,20,43.24,5.29,1.6922e+00,95.9351,28.3657,5.12972,222.656
2015-01-20T08:01:00,25.000,-24.8,14.5201,4.565062,37.9621,0.2294,20,43.24,5.29,1.5377e+00,95.9698,28.3666,5.09635,221.206
2015-01-20T08:01:00,26.000,-25.8,14.5195,4.565458,37.9661,0.2203,20,43.24,5.29,1.3948e+00,96.0215,28.3697,5.08558,220.738
2015-01-20T08:01:00,27.000,-26.8,14.5252,4.566390,37.9689,0.2144,20,43.24,5.29,1.2549e+00,96.0114,28.3706,5.10789,221.705
2015-01-20T08:01:00,28.000,-27.8,14.5551,4.570175,37.9736,0.1994,20,43.24,5.29,1.1422e+00,95.9840,28.3683,5.10629,221.634
2015-01-20T08:01:00,29.000,-28.8,14.6272,4.584049,38.0303,0.2126,20,43.24,5.29,1.0388e+00,95.9712,28.3973,5.11402,221.960
2015-01-20T08:01:00,30.000,-29.8,14.6293,4.585161,38.0388,0.2140,20,43.24,5.29,9.4754e-01,96.0009,28.4029,5.11321,221.923
2015-01-20T08:01:00,31.000,-30.7,14.6257,4.584691,38.0380,0.2288,20,43.24,5.29,8.6663e-01,96.2466,28.4029,5.10688,221.649
2015-01-20T08:01:00,32.000,-31.8,14.6275,4.585062,38.0395,0.2352,20,43.24,5.29,7.9533e-01,96.3593,28.4035,5.10450,221.546
2015-01-20T08:01:00,33.000,-32.7,14.6251,4.584956,38.0408,0.2346,20,43.24,5.29,7.1977e-01,96.5029,28.4046,5.10956,221.765
2015-01-20T08:01:00,34.000,-33.7,14.6202,4.584471,38.0411,0.2468,20,43.24,5.29,6.5576e-01,96.6093,28.4057,5.10429,221.536
2015-01-20T08:01:00,35.000,-34.7,14.6187,4.584371,38.0414,0.2418,20,43.24,5.29,6.0284e-01,96.6869,28.4062,5.09281,221.038
2015-01-20T08:01:00,36.000,-35.7,14.6147,4.583951,38.0411,0.2594,20,43.24,5.29,5.5264e-01,96.6522,28.4067,5.12104,222.264
2015-01-20T08:01:00,37.000,-36.7,14.6130,4.583774,38.0408,0.2311,20,43.24,5.29,5.0038e-01,96.7090,28.4068,5.13591,222.909
2015-01-20T08:01:00,38.000,-37.7,14.6137,4.583891,38.0409,0.2619,20,43.24,5.29,4.5443e-01,96.5543,28.4067,5.10244,221.456
2015-01-20T08:01:00,39.000,-38.7,14.6155,4.584221,38.0417,0.2492,20,43.24,5.29,4.1489e-01,96.4651,28.4069,5.08406,220.659
2015-01-20T08:01:00,40.000,-39.7,14.6161,4.584372,38.0422,0.2228,20,43.24,5.29,3.8142e-01,96.5333,28.4072,5.09501,221.134
2015-01-20T08:01:00,41.000,-40.7,14.6144,4.584238,38.0422,0.2618,20,43.24,5.29,3.4257e-01,96.5463,28.4076,5.09263,221.031
2015-01-20T08:01:00,42.000,-41.7,14.6122,4.584050,38.0423,0.2967,20,43.24,5.29,3.1163e-01,96.4371,28.4081,5.09787,221.258
2015-01-20T08:01:00,43.000,-42.7,14.6119,4.584126,38.0429,0.2724,20,43.24,5.29,2.8535e-01,96.4814,28.4086,5.10449,221.545
2015-01-20T08:01:00,44.000,-43.6,14.6146,4.584674,38.0448,0.2727,20,43.24,5.29,2.5316e-01,96.5398,28.4096,5.11615,222.051
2015-01-20T08:01:00,45.000,-44.6,14.6127,4.584583,38.0455,0.2580,20,43.24,5.29,2.2859e-01,96.4052,28.4105,5.11102,221.828
2015-01-20T08:01:00,46.000,-45.6,14.6067,4.583952,38.0453,0.2503,20,43.24,5.29,2.0694e-01,96.4784,28.4116,5.12469,222.422
2015-01-20T08:01:00,47.000,-46.6,14.6014,4.583395,38.0449,0.2296,20,43.24,5.29,1.8281e-01,96.4509,28.4124,5.12345,222.368
2015-01-20T08:01:00,48.000,-47.6,14.5815,4.581103,38.0431,0.2132,20,43.24,5.29,1.6401e-01,96.4426,28.4151,5.10213,221.443
2015-01-20T08:01:00,49.000,-48.6,14.5686,4.579825,38.0437,0.2446,20,43.24,5.29,1.4777e-01,96.3459,28.4183,5.11379,221.949
2015-01-20T08:01:00,50.000,-49.6,14.5559,4.578255,38.0413,0.3090,20,43.24,5.29,1.2805e-01,96.2987,28.4191,5.13042,222.672
2015-01-20T08:01:00,51.000,-50.6,14.5416,4.576701,38.0405,0.2814,20,43.24,5.29,1.1231e-01,96.0858,28.4216,5.14224,223.185
2015-01-20T08:01:00,52.000,-51.6,14.5331,4.575768,38.0395,0.2488,20,43.24,5.29,9.9703e-02,95.5639,28.4228,5.15483,223.731
2015-01-20T08:01:00,53.000,-52.6,14.5314,4.575617,38.0392,0.2811,20,43.24,5.29,8.6780e-02,95.5307,28.4231,5.15276,223.642
2015-01-20T08:01:00,54.000,-53.6,14.5280,4.575330,38.0392,0.3533,20,43.24,5.29,7.2609e-02,95.3654,28.4241,5.15538,223.755
2015-01-20T08:01:00,55.000,-54.6,14.5183,4.574322,38.0390,0.3743,20,43.24,5.29,6.0810e-02,95.3626,28.4261,5.16196,224.041
2015-01-20T08:01:00,56.000,-55.5,14.4992,4.572164,38.0369,0.3269,20,43.24,5.29,4.9718e-02,94.9017,28.4289,5.15104,223.568
